Skip Page Navigation
NASA JPL Caltech
NASA Logo - Jet Propulsion Laboratory + View the NASA Portal
+ Center for Near-Earth Object Studies
JPL Home Earth Solar System Stars & Galaxies Technology
JPL Solar System Dynamics
BODIES ORBITS EPHEMERIDES TOOLS PHYSICAL DATA DISCOVERY FAQ SITE MAP
IMPORTANT: The SSD Announcement email list is now available. Major changes are coming in the near future, including possible hostname and/or URL changes. To be notified of such changes, subscribe to this email list.

Please visit this page for more details.


JPL Small-Body Database Browser
Search: [ help ]  
461971 (2006 UF201)
Classification: Main-belt Asteroid          SPK-ID: 2461971
Ephemeris | Orbit Diagram | Orbital Elements | Mission Design | Physical Parameters | Discovery Circumstances ]

[ show orbit diagram ]
Orbital Elements at Epoch 2458600.5 (2019-Apr-27.0) TDB
Reference: JPL 17 (heliocentric ecliptic J2000)
 Element Value Uncertainty (1-sigma)   Units 
e .1333681546776962 5.9486e-07  
a 2.555820663178339 5.6935e-08 au
q 2.214955577643118 1.5652e-06 au
i .2510427990703614 1.3179e-05 deg
node 218.1100038547344 0.0015866 deg
peri 144.8701689900704 0.0015876 deg
M 56.99857050477615 3.8154e-05 deg
tp 2458364.204497568269
(2018-Sep-02.70449757)
0.00015398 TDB
period 1492.430075387505
4.09
4.9869e-05
1.365e-07
d
yr
n .2412173313423257 8.0602e-09 deg/d
Q 2.896685748713559 6.4528e-08 au
  Orbit Determination Parameters
   # obs. used (total)      104  
   data-arc span      5343 days (14.63 yr)  
   first obs. used      2004-03-17  
   last obs. used      2018-11-02  
   planetary ephem.      DE431  
   SB-pert. ephem.      SB431-N16  
   condition code      0  
   norm. resid. RMS      .64996  
   source      ORB  
   producer      Otto Matic  
   solution date      2019-Jul-14 08:28:13  

Additional Information
 Earth MOID = 1.21152 au 
 Jupiter MOID = 2.55252 au 
 T_jup = 3.425 
[ show covariance matrix ]

Ephemeris | Orbit Diagram | Orbital Elements | Mission Design | Physical Parameters | Discovery Circumstances ]

Physical Parameter Table
Parameter Symbol Value Units Sigma Reference Notes
absolute magnitude H 18.0   n/a MPO311288  

461971 (2006 UF201)          Discovered 2006-Oct-21 by Spacewatch at Kitt Peak
Reference: Last Updated: 2016-03-24

Alternate Designations
 2006 UF201 = 2010 WU50 = 2010 XA89 
Ephemeris | Orbit Diagram | Orbital Elements | Mission Design | Physical Parameters | Discovery Circumstances ]
ABOUT SSD CREDITS/AWARDS PRIVACY/COPYRIGHT GLOSSARY LINKS
FirstGov 2019-Oct-18 12:50 UT
(server date/time)  
NASA Home Page
Site Manager:   Ryan S. Park
Webmaster  Alan B. Chamberlin